Location: Oklahoma City
(35.4680°N, 97.5160°W)
Time: 03:18:45
(UTC-05:00)

ISS - All Passes

Search period start: 31 October 2014 00:00
Search period end: 09 November 2014 23:00
Orbit: 412 x 417 km, 51.6° (Epoch: 30 October)

Date Brightness Start Highest point End Pass type
(mag) Time Alt. Az. Time Alt. Az. Time Alt. Az.
31 Oct - 09:37:06 10° S 09:39:26 18° SE 09:41:46 10° E daylight
31 Oct - 11:12:49 10° WSW 11:15:54 36° NW 11:19:01 10° NNE daylight
31 Oct - 16:08:42 10° N 16:09:43 11° NNE 16:10:45 10° NE daylight
31 Oct - 17:43:38 10° NW 17:46:58 65° NE 17:50:16 10° ESE daylight
01 Nov - 10:23:24 10° SW 10:26:41 68° NW 10:30:00 10° NE daylight
01 Nov - 12:02:48 10° NW 12:03:54 11° NNW 12:05:01 10° N daylight
01 Nov - 16:54:37 10° NNW 16:57:43 35° NE 17:00:48 10° ESE daylight
01 Nov - 18:31:47 10° W 18:34:13 19° SW 18:36:39 10° S daylight
02 Nov - 08:34:14 10° SW 08:37:30 59° SE 08:40:46 10° NE daylight
02 Nov - 10:12:16 10° WNW 10:14:26 16° NNW 10:16:37 10° NNE daylight
02 Nov - 15:05:43 10° NNW 15:08:22 21° NNE 15:11:00 10° E daylight
02 Nov - 16:42:02 10° WNW 16:45:07 36° SW 16:48:12 10° SSE daylight
03 Nov - 07:45:26 10° SSW 07:48:20 29° SE 07:51:15 10° ENE daylight
03 Nov - 09:22:12 10° W 09:25:00 25° NNW 09:27:48 10° NNE daylight
03 Nov - 14:16:59 10° N 14:18:54 14° NNE 14:20:49 10° ENE daylight
03 Nov - 15:52:36 10° NW 15:55:55 75° SW 15:59:14 10° SE daylight
04 Nov - 06:57:11 10° SSE 06:59:12 15° SE 07:01:13 10° E daylight
04 Nov - 08:32:26 10° WSW 08:35:36 42° NW 08:38:47 10° NE daylight
04 Nov - 13:29:02 10° NNE 13:29:19 10° NNE 13:29:37 10° NNE daylight
04 Nov - 15:03:20 10° NW 15:06:37 54° NE 15:09:53 10° ESE daylight
04 Nov - 16:41:40 10° WSW 16:42:55 12° SW 16:44:10 10° SSW daylight
05 Nov - 07:42:56 10° SW 07:46:14 82° NW 07:49:33 10° NE daylight
05 Nov - 09:21:54 10° NW 09:23:22 12° NNW 09:24:50 10° N daylight
05 Nov - 14:14:12 10° NNW 14:17:11 30° NE 14:20:10 10° E daylight
05 Nov - 15:51:05 10° WNW 15:53:45 22° SW 15:56:24 10° S daylight
06 Nov - 06:53:42 10° SSW 06:56:54 48° SE 07:00:06 10° ENE daylight
06 Nov - 08:31:23 10° WNW 08:33:45 18° NNW 08:36:07 10° NNE daylight
06 Nov - 13:25:11 10° NNW 13:27:39 19° NNE 13:30:07 10° ENE daylight
06 Nov - 15:01:17 10° WNW 15:04:28 44° SW 15:07:39 10° SSE daylight
07 Nov - 06:04:51 10° S 06:07:35 24° SE 06:10:20 10° ENE visible
07 Nov - 07:41:16 10° W 07:44:10 28° NW 07:47:06 10° NNE daylight
07 Nov - 12:36:22 10° N 12:38:00 13° NNE 12:39:38 10° NE daylight
07 Nov - 14:11:46 10° NW 14:15:05 89° NE 14:18:24 10° SE daylight
08 Nov - 05:16:47 10° SSE 05:18:18 13° SE 05:19:50 10° E visible
08 Nov - 06:51:24 10° WSW 06:54:38 50° NW 06:57:52 10° NE daylight
08 Nov - 13:22:23 10° NW 13:25:36 45° NE 13:28:48 10° ESE daylight
08 Nov - 15:00:07 10° W 15:01:58 14° SW 15:03:48 10° SSW daylight
09 Nov - 06:01:49 10° SW 06:05:07 82° SE 06:08:26 10° NE visible
09 Nov - 07:40:23 10° WNW 07:42:10 14° NNW 07:43:56 10° N daylight
09 Nov - 12:33:08 10° NNW 12:36:00 26° NE 12:38:51 10° E daylight
09 Nov - 14:09:45 10° WNW 14:12:37 27° SW 14:15:27 10° S daylight
